Stations météo

réclame
Mon MeteoGroup
Exeter Airport No. 2, Grande-Bretagne (3844): Température de l'air & dewpoint: 08.08.2020 20:00:00 - 14.08.2020 20:00:00 (BST)Exeter Airport No. 2, Grande-Bretagne (3844): Température de l'air -20cm & Température de l'air -100cm: 08.08.2020 20:00:00 - 14.08.2020 20:00:00 (BST)Exeter Airport No. 2, Grande-Bretagne (3844): reduced air pressure: 08.08.2020 20:00:00 - 14.08.2020 20:00:00 (BST)Exeter Airport No. 2, Grande-Bretagne (3844): visibility: 08.08.2020 20:00:00 - 14.08.2020 20:00:00 (BST)Exeter Airport No. 2, Grande-Bretagne (3844): Ensoleillement: 08.08.2020 20:00:00 - 14.08.2020 20:00:00 (BST)Exeter Airport No. 2, Grande-Bretagne (3844): Quantités de précipitations: 08.08.2020 20:00:00 - 14.08.2020 20:00:00 (BST)
Date & Time tt [°C] td [°C] tt -20cm [°C] tt -100cm [°C] ppp [hPa] vv [km] sd [min] rr [mm]
14.08.2020 20:00:00 19,4 17,0 - - 1014,7 9 0 0,0
14.08.2020 19:00:00 19,7 17,1 - - 1014,5 9 0 0,0
14.08.2020 18:00:00 20,4 16,9 - - 1014,4 13 0 0,0
14.08.2020 17:00:00 22,0 17,5 - - 1014,0 18 0 0,0
14.08.2020 16:00:00 21,8 17,4 - - 1014,1 17 0 0,0
14.08.2020 15:00:00 21,4 17,8 - - 1014,2 12 6 0,0
14.08.2020 14:00:00 20,2 17,8 - - 1014,6 10 0 0,0
14.08.2020 13:00:00 19,9 18,3 - - 1014,5 6 0 0,0
14.08.2020 12:00:00 19,6 18,4 - - 1014,2 5 0 0,0
14.08.2020 11:00:00 19,0 17,9 - - 1014,2 4,1 0 0,0
14.08.2020 10:00:00 18,8 18,1 19,4 16,9 1013,9 1,9 0 0,0
14.08.2020 09:00:00 19,3 18,4 - - 1013,4 4,2 0 0,0
14.08.2020 08:00:00 19,1 18,3 - - 1013,0 4,4 0 0,0
14.08.2020 07:00:00 19,0 18,3 - - 1012,6 3,4 0 0,0
14.08.2020 06:00:00 19,0 18,4 - - 1012,7 2,1 0 1,0
14.08.2020 05:00:00 19,1 18,3 - - 1012,7 2,1 0 0,0
14.08.2020 04:00:00 19,4 18,5 - - 1012,8 2,8 0 0,0
14.08.2020 03:00:00 19,5 18,8 - - 1013,1 2,7 0 0,0
14.08.2020 02:00:00 19,6 18,9 - - 1012,7 2,5 0 0,0
14.08.2020 01:00:00 19,7 19,0 - - 1012,9 3,0 - 0,0
14.08.2020 00:00:00 19,7 19,2 - - 1012,9 2,6 0 0,0
13.08.2020 23:00:00 19,8 19,2 - - 1013,0 2,0 0 0,8
13.08.2020 22:00:00 19,9 19,2 - - 1013,1 3,0 0 0,0
13.08.2020 21:00:00 20,2 19,3 - - 1012,2 4,1 0 0,0
13.08.2020 20:00:00 20,4 19,7 - - 1012,2 11 0 0,0
13.08.2020 19:00:00 20,6 19,8 - - 1012,2 10 0 0,0
13.08.2020 18:00:00 20,4 19,6 - - 1012,5 17 0 0,2
13.08.2020 17:00:00 20,7 19,8 - - 1012,4 12 0 2,8
13.08.2020 16:00:00 19,6 18,8 - - 1012,1 2,4 0 8,6
13.08.2020 15:00:00 19,3 16,4 - - 1012,0 1,0 0 10,2
13.08.2020 14:00:00 27,5 17,5 - - 1011,5 28 36 0,0
13.08.2020 13:00:00 26,1 17,6 - - 1011,8 25 48 0,0
13.08.2020 12:00:00 26,1 18,7 - - 1011,8 21 30 0,0
13.08.2020 11:00:00 24,3 18,4 - - 1012,0 15 42 0,0
13.08.2020 10:00:00 23,1 18,1 19,2 16,7 1011,6 11 60 0,0
13.08.2020 09:00:00 21,3 18,3 - - 1011,8 8 48 0,0
13.08.2020 08:00:00 19,4 18,2 - - 1011,8 6 24 0,0
13.08.2020 07:00:00 17,6 17,2 - - 1011,5 3,5 0 0,0
13.08.2020 06:00:00 16,9 16,3 - - 1011,4 2,8 0 0,0
13.08.2020 05:00:00 18,4 17,5 - - 1011,3 2,9 0 0,0
13.08.2020 04:00:00 19,1 17,9 - - 1011,9 4,4 0 0,0
13.08.2020 03:00:00 18,5 17,1 - - 1011,8 4,6 0 0,0
13.08.2020 02:00:00 19,3 17,6 - - 1012,0 5 0 0,0
13.08.2020 01:00:00 19,1 17,4 - - 1011,9 5 - 0,0
13.08.2020 00:00:00 19,1 17,6 - - 1011,6 5 0 0,0
12.08.2020 23:00:00 19,7 17,6 - - 1011,7 8 0 0,0
12.08.2020 22:00:00 20,4 17,6 - - 1012,1 6 0 0,0
12.08.2020 21:00:00 21,9 17,4 - - 1011,3 20 0 0,0
12.08.2020 20:00:00 22,7 17,4 - - 1011,1 21 6 0,0
12.08.2020 19:00:00 22,3 17,2 - - 1011,3 27 6 0,0
12.08.2020 18:00:00 26,2 16,9 - - 1010,7 30 42 0,0
12.08.2020 17:00:00 28,7 15,7 - - 1011,2 45 54 0,0
12.08.2020 16:00:00 29,0 17,5 - - 1011,6 35 60 0,0
12.08.2020 15:00:00 27,9 17,4 - - 1011,9 35 60 0,0
12.08.2020 14:00:00 28,6 17,3 - - 1012,1 45 60 0,0
12.08.2020 13:00:00 28,4 17,1 - - 1012,3 35 60 0,0
12.08.2020 12:00:00 27,9 16,8 - - 1012,8 40 60 0,0
12.08.2020 11:00:00 27,2 18,1 - - 1013,0 28 60 0,0
12.08.2020 10:00:00 25,3 19,8 18,9 16,5 1012,7 15 60 0,0
12.08.2020 09:00:00 22,6 19,6 - - 1012,4 10 60 0,0
12.08.2020 08:00:00 18,8 17,7 - - 1012,4 6 42 0,0
12.08.2020 07:00:00 16,4 16,0 - - 1012,9 3,0 0 0,0
12.08.2020 06:00:00 16,2 15,7 - - 1012,7 2,6 0 0,0
12.08.2020 05:00:00 16,2 15,4 - - 1012,8 2,1 0 0,0
12.08.2020 04:00:00 17,3 16,5 - - 1012,9 4,3 0 0,0
12.08.2020 03:00:00 17,9 16,8 - - 1013,1 5 0 0,0
12.08.2020 02:00:00 18,5 17,2 - - 1013,2 6 0 0,0
12.08.2020 01:00:00 18,3 17,2 - - 1013,3 6 - 0,0
12.08.2020 00:00:00 19,0 17,4 - - 1013,9 6 0 0,2
11.08.2020 23:00:00 20,7 18,1 - - 1014,0 9 0 0,0
11.08.2020 22:00:00 21,2 17,8 - - 1014,1 12 0 0,0
11.08.2020 21:00:00 23,3 18,4 - - 1014,0 13 0 0,0
11.08.2020 20:00:00 25,9 18,8 - - 1013,4 13 60 0,0
11.08.2020 19:00:00 26,6 18,8 - - 1012,9 13 60 0,0
11.08.2020 18:00:00 29,5 15,6 - - 1012,7 35 60 0,0
11.08.2020 17:00:00 29,0 17,7 - - 1013,2 28 42 0,0
11.08.2020 16:00:00 29,7 18,5 - - 1013,6 28 54 0,0
11.08.2020 15:00:00 29,6 18,7 - - 1013,8 26 60 0,0
11.08.2020 14:00:00 29,3 18,4 - - 1014,0 22 60 0,0
11.08.2020 13:00:00 28,9 19,4 - - 1014,3 22 60 0,0
11.08.2020 12:00:00 27,1 19,3 - - 1014,5 19 36 0,0
11.08.2020 11:00:00 25,4 18,9 - - 1014,7 18 60 0,0
11.08.2020 10:00:00 22,2 18,0 18,2 16,4 1014,9 22 54 0,0
11.08.2020 09:00:00 19,7 18,3 - - 1015,1 14 54 0,0
11.08.2020 08:00:00 16,6 16,6 - - 1015,2 3,8 0 0,0
11.08.2020 07:00:00 15,6 15,5 - - 1015,2 1,7 0 0,0
11.08.2020 06:00:00 15,9 15,7 - - 1014,9 0,1 0 0,0
11.08.2020 05:00:00 15,9 15,5 - - 1014,5 1,8 0 0,0
11.08.2020 04:00:00 16,5 16,1 - - 1014,7 3,1 0 0,0
11.08.2020 03:00:00 16,3 15,8 - - 1014,8 3,6 0 0,0
11.08.2020 02:00:00 16,4 15,7 - - 1015,1 4,4 0 0,0
11.08.2020 01:00:00 17,3 16,4 - - 1015,1 4,3 - 0,0
11.08.2020 00:00:00 18,0 16,9 - - 1015,0 4,2 0 0,0
10.08.2020 23:00:00 19,4 18,0 - - 1014,7 7 0 0,0
10.08.2020 22:00:00 20,6 18,7 - - 1014,7 6 0 0,0
10.08.2020 21:00:00 20,8 17,3 - - 1014,1 8 0 0,0
10.08.2020 20:00:00 23,3 18,2 - - 1013,9 11 0 0,0
10.08.2020 19:00:00 25,6 18,1 - - 1013,6 14 54 0,0
10.08.2020 18:00:00 24,9 17,7 - - 1013,4 13 60 0,0
10.08.2020 17:00:00 24,3 17,9 - - 1013,6 12 24 0,0
10.08.2020 16:00:00 22,7 18,2 - - 1014,0 13 0 0,0
10.08.2020 15:00:00 21,6 17,3 - - 1013,5 9 0 0,0
10.08.2020 14:00:00 21,1 17,5 - - 1014,3 11 0 0,0
10.08.2020 13:00:00 21,4 17,7 - - 1014,7 13 0 0,0
10.08.2020 12:00:00 21,3 17,5 - - 1014,2 14 0 0,0
10.08.2020 11:00:00 22,1 16,9 - - 1014,3 16 24 0,0
10.08.2020 10:00:00 21,4 17,1 18,2 16,2 1014,0 15 12 0,0
10.08.2020 09:00:00 20,7 17,0 - - 1014,0 15 18 0,0
10.08.2020 08:00:00 19,5 17,3 - - 1013,2 12 24 0,0
10.08.2020 07:00:00 16,7 15,6 - - 1013,9 8 0 0,0
10.08.2020 06:00:00 16,2 15,3 - - 1014,2 7 0 0,0
10.08.2020 05:00:00 16,6 15,5 - - 1014,7 9 0 0,0
10.08.2020 04:00:00 16,6 15,5 - - 1015,1 9 0 0,0
10.08.2020 03:00:00 16,3 15,3 - - 1015,1 6 0 0,0
10.08.2020 02:00:00 16,4 15,3 - - 1015,4 6 0 0,0
10.08.2020 01:00:00 16,9 15,2 - - 1016,1 7 - 0,0
10.08.2020 00:00:00 17,6 15,6 - - 1016,4 8 0 0,0
09.08.2020 23:00:00 18,5 15,6 - - 1016,3 13 0 0,0
09.08.2020 22:00:00 19,5 15,7 - - 1016,3 15 0 0,0
09.08.2020 21:00:00 20,6 15,8 - - 1016,2 17 6 0,0
09.08.2020 20:00:00 22,1 16,0 - - 1016,4 22 42 0,0
09.08.2020 19:00:00 23,3 16,0 - - 1016,3 24 60 0,0
09.08.2020 18:00:00 24,0 16,4 - - 1016,3 27 60 0,0
09.08.2020 17:00:00 24,8 16,6 - - 1017,0 25 60 0,0
09.08.2020 16:00:00 24,4 16,5 - - 1017,4 23 60 0,0
09.08.2020 15:00:00 24,1 16,5 - - 1017,2 20 60 0,0
09.08.2020 14:00:00 24,6 17,0 - - 1017,4 23 60 0,0
09.08.2020 13:00:00 23,1 16,0 - - 1017,9 18 60 0,0
09.08.2020 12:00:00 22,1 15,7 - - 1018,2 18 60 0,0
09.08.2020 11:00:00 21,9 16,2 - - 1018,4 21 60 0,0
09.08.2020 10:00:00 20,0 15,4 18,0 16,0 1018,7 19 60 0,0
09.08.2020 09:00:00 19,6 16,0 - - 1018,8 21 60 0,0
09.08.2020 08:00:00 17,6 15,7 - - 1019,0 22 60 0,0
09.08.2020 07:00:00 13,5 13,1 - - 1019,1 15 12 0,0
09.08.2020 06:00:00 14,5 14,2 - - 1019,0 18 0 0,0
09.08.2020 05:00:00 15,1 14,4 - - 1019,0 19 0 0,0
09.08.2020 04:00:00 15,7 14,7 - - 1019,1 21 0 0,0
09.08.2020 03:00:00 16,3 15,2 - - 1019,0 24 0 0,0
09.08.2020 02:00:00 16,8 15,5 - - 1019,3 23 0 0,0
09.08.2020 01:00:00 17,4 16,0 - - 1019,3 25 - 0,0
09.08.2020 00:00:00 17,7 16,2 - - 1019,3 27 0 0,0
08.08.2020 23:00:00 18,3 16,4 - - 1019,3 30 0 0,0
08.08.2020 22:00:00 19,4 16,8 - - 1019,2 35 0 0,0
08.08.2020 21:00:00 20,8 17,2 - - 1019,0 40 18 0,0
08.08.2020 20:00:00 22,8 17,8 - - 1018,7 40 60 0,0

tt = Température de l'air
td = dewpoint
tt -20cm = Température de l'air -20cm
tt -100cm = Température de l'air -100cm
ppp = reduced air pressure
vv = visibility
sd = Ensoleillement
rr = Quantités de précipitations

stations d'obs. à proximité